This is the latest recevied weather packets stored in our database for station/object KC7WRB. If no packets are shown the sender has not sent any weather packets the latest 10 day(s).
| Time | Temp. | Humidity | Pressure | Rain* | Wind** | Luminosity | Snow |
|---|---|---|---|---|---|---|---|
| 1778453952 | 32.78° C | 11% | 1016.4 hPa | 0 mm | - | 652 W/m² | - |
| 1778453649 | 33.33° C | 10% | 1016.4 hPa | 0 mm | - | 667 W/m² | - |
| 1778453344 | 32.22° C | 11% | 1016.3 hPa | 0 mm | - | 685 W/m² | - |
| 1778453041 | 32.22° C | 11% | 1016.5 hPa | 0 mm | - | 698 W/m² | - |
| 1778452737 | 31.67° C | 12% | 1016.4 hPa | 0 mm | - | 715 W/m² | - |
| 1778452435 | 31.67° C | 12% | 1016.7 hPa | 0 mm | - | 726 W/m² | - |
| 1778452132 | 32.22° C | 13% | 1016.3 hPa | 0 mm | - | 743 W/m² | - |
| 1778451829 | 32.22° C | 12% | 1016.5 hPa | 0 mm | - | 751 W/m² | - |
| 1778451524 | 33.33° C | 11% | 1016.9 hPa | 0 mm | - | 763 W/m² | - |
| 1778451222 | 33.33° C | 11% | 1017 hPa | 0 mm | - | 783 W/m² | - |
| 1778450917 | 32.78° C | 12% | 1017.1 hPa | 0 mm | - | 798 W/m² | - |
| 1778450614 | 32.22° C | 11% | 1016.8 hPa | 0 mm | - | 804 W/m² | - |
| 1778450310 | 32.22° C | 12% | 1016.7 hPa | 0 mm | - | 814 W/m² | - |
| 1778450008 | 31.67° C | 11% | 1016.9 hPa | 0 mm | - | 828 W/m² | - |
| 1778449705 | 31.67° C | 13% | 1017 hPa | 0 mm | - | 845 W/m² | - |
| 1778449402 | 31.67° C | 13% | 1017 hPa | 0 mm | - | 853 W/m² | - |
| 1778449099 | 31.67° C | 13% | 1016.9 hPa | 0 mm | - | 862 W/m² | - |
| 1778448796 | 31.67° C | 13% | 1017 hPa | 0 mm | - | 867 W/m² | - |
| 1778448492 | 31.67° C | 13% | 1017.1 hPa | 0 mm | - | 871 W/m² | - |
| 1778448189 | 31.11° C | 13% | 1017.1 hPa | 0 mm | - | 878 W/m² | - |
| 1778447886 | 30.56° C | 13% | 1017.4 hPa | 0 mm | - | 888 W/m² | - |
| 1778447582 | 31.11° C | 14% | 1017.4 hPa | 0 mm | - | 895 W/m² | - |
| 1778447278 | 31.11° C | 13% | 1017.4 hPa | 0 mm | - | 902 W/m² | - |
| 1778446973 | 30.56° C | 16% | 1017.6 hPa | 0 mm | - | 909 W/m² | - |
| 1778446672 | 30.56° C | 13% | 1017.6 hPa | 0 mm | - | 908 W/m² | - |
* Rain latest hour (hover to see other rain measurements)
** Current wind speed in m/s (hover to see current wind gust speed)